Regional Weather Roundup
Issued by NWS

Home | Current Version | Previous Version | Graphics & Text | Print | Product List | Glossary On
Versions: 1 2 3 4 5 6 7 8 9 10 11 12 13 14 15 16 17 18 19 20 21 22 23 24 25 26 27 28 29 30 31 32 33 34 35 36 37 38 39 40 41 42 43 44 45 46 47 48 49 50
000
ASUS43 KBIS 270110
RWRND

NORTH DAKOTA REGIONAL WEATHER ROUNDUP
NATIONAL WEATHER SERVICE BISMARCK ND
800 PM CDT SUN APR 26 2015

NOTE: "FAIR" INDICATES FEW OR NO CLOUDS BELOW 12,000 FEET WITH NO
SIGNIFICANT WEATHER AND/OR OBSTRUCTIONS TO VISIBILITY.


NDZ001>003-009>011-017-270200-
NORTHWEST NORTH DAKOTA

CITY           SKY/WX    TMP DP  RH WIND       PRES   REMARKS
WILLISTON      CLOUDY    53  34  48 N8        30.15R
MINOT          LGT RAIN  49  45  86 SW3       30.13S
MINOT AFB      CLOUDY    49  49 100 SW7       30.12S
$$

NDZ018>021-031>035-040>046-270200-
SOUTHWEST NORTH DAKOTA

CITY           SKY/WX    TMP DP  RH WIND       PRES   REMARKS
BISMARCK       CLOUDY    54  48  80 N10       30.11R
DICKINSON      CLOUDY    44  41  89 N7        30.11S
GARRISON         N/A     49  46  90 N6        30.13S
HETTINGER ARPT CLOUDY    46  44  93 NE10      30.10S FOG
$$

NDZ004>008-012>016-024-026-027-054-270200-
NORTHEAST NORTH DAKOTA

CITY           SKY/WX    TMP DP  RH WIND       PRES   REMARKS
GRAND FORKS    MOCLDY    64  29  26 CALM      30.10S
GRND FRKS AFB  PTCLDY    63  26  24 S3        30.10S
DEVILS LAKE    MOCLDY    55  45  67 N8        30.11S
$$

NDZ022-023-025-028>030-036>039-047>053-270200-
SOUTHEAST NORTH DAKOTA

CITY           SKY/WX    TMP DP  RH WIND       PRES   REMARKS
FARGO          PTCLDY    65  23  20 CALM      30.10R
JAMESTOWN      PTCLDY    62  32  32 E7        30.08S
$$



USA.gov is the U.S. government's official web portal to all federal, state and local government web resources and services.